Find Local Weather

World > North America > United States > California

Pioneertown, California Regional Weather

Lat: 34.16N, Lon: 116.5W
Wx Zone: CAZ060
Feedback
Expires:201807180400;;646937
ASUS46 KLOX 180313
RWRCA 

SOUTHERN CALIFORNIA WEATHER ROUNDUP
NATIONAL WEATHER SERVICE OXNARD CALIFORNIA
800 PM PDT TUE JUL 17 2018

NOTE: "FAIR" INDICATES FEW OR NO CLOUDS BELOW 12,000 FEET WITH NO 
SIGNIFICANT WEATHER AND/OR OBSTRUCTIONS TO VISIBILITY.

  -  STATIONS PRECEEDED BY AN ASTERISK (*) ARE NOT NWS OR FAA 
     STATIONS AND ARE NOT SUBJECT TO NWS AND FAA QUALITY CONTROL.


CAZ028-029-059-060-099-180400-
ANTELOPE VALLEY AND SURROUNDING AREAS

  
CITY           SKY/WX    TMP DP  RH WIND       PRES   REMARKS
LANCASTER      CLEAR     89  57  33 SW21      29.95R                  
PALMDALE       CLEAR     91  55  29 W18       29.97R                  
*POPPY PARK      N/A     86  56  35 SW15        N/A                   

CITY           SKY/WX    TMP DP  RH WIND       PRES   REMARKS
29 PALMS       PTCLDY    97  59  28 SW15      29.96R HX  96           
BARSTOW/DAGGET CLEAR    104  55  19 E9        29.85R HX 102           
BISHOP         PTCLDY    97  43  15 S13G18    29.98R HX  93           
CHINA LAKE     PTCLDY   104  45  13 W10       29.85S HX 100           
EDWARDS AFB    PTCLDY    94  53  24 SW23G30   29.90R HX  91           
MOJAVE         CLEAR     93  46  20 NW22G31   29.93S                  
NEEDLES        MOCLDY   108  60  21 S8        29.79S HX 109           

$$


SKY/WX - Weather  TMP - Temperature  DP - Dewpoint  RH - Relative Humidity
WIND - Wind Direction/Speed PRES - Barometric Pressure